Find Starlink 32003

NORAD ID: 60097 Int'l Des: 2024-117 Owner: SPXS Country: US Constellation: starlink operational
LEOCIRCULAR

Current View

Loading 3D Globe...

About Starlink 32003

Starlink 32003 (NORAD 60097) is a starlink constellation satellite (v2 mini) launched Jun 23, 2024 by SPXS of US. It operates in LEO, CIRCULAR orbit with a mass of 730.00 kg.

Upcoming Passes

Passes for default location (London). Set your location on the main map for personalized predictions.

Altitude History

Loading altitude history...

Two-Line Element Set

1 60097U 24117G 26264.26094581 .00000295 00000-0 19874-4 0 9991
2 60097 53.1590 206.2815 0001428 86.2281 273.8885 15.34392174126866
Epoch: Sep 21, 2026 • Age: 26 hours

Current Status

Altitude 473.6 km
Apogee / Perigee N/A
Velocity 7.63 km/s
Sub-Earth Point -32.66°S, 75.05°W
Launch Date Jun 23, 2024
Age 2.2 years
Type internet

Technical Details

Classification Payload
Mass 730.00 kg
Dry Mass 700.00 kg
Length 0.30 m
Span 29.00 m
Shape ? Box + pan
Manufacturer SPXS
Bus Type Starlink V2M
Phase Status In Orbit
Owner/State SPXS/US

Most Searched